Location: Dodgeville, WI 53533, USA
(43.0344°N, 90.0900°W)
Time: 23:25:11
(UTC-06:00)

ISS - Pass Details

Date: 26 January 2021
Orbit: 417 x 422 km, 51.6° (Epoch: 05 March)

Event Time Altitude Azimuth Distance (km) Brightness Sun altitude
Rises 19:34:59 0° 301° (WNW) 2,374 1.0 -27.3°
Reaches altitude 10° 19:37:28 10° 318° (NW) 1,509 -0.5 -27.7°
Enters shadow 19:37:46 12° 322° (NW) 1,421 -0.7 -27.8°
